[[{"header":{"parameterUnit":"m.s-1","parameterCategory":1,"la1":30.2992,"la2":30.254,"lo1":-89.0895,"lo2":-89.0443,"dy":0.0025,"dx":0.0025,"nx":19,"ny":19,"refTime":"2026-05-10T03:00:00:Z","depth":0,"parameterNumber":2,"parameterNumberName":"U-component_of_WINDS"},"data":[0,0,0,-1.38,-1.3801,-1.3808,-1.3808,-1.3835,-1.3836,0,0,0,0,0,0,0,0,0,0,0,-1.3807,-1.3808,-1.38,-1.3801,-1.3808,-1.3808,-1.3835,-1.3836,0,0,0,0,0,0,0,0,0,0,0,-1.3807,-1.3808,-1.3808,-1.3801,-1.3808,-1.3808,-1.3835,-1.3824,0,0,0,0,0,0,0,0,0,0,-1.3813,-1.3829,-1.3808,-1.3808,-1.3801,-1.3808,-1.3808,-1.3823,-1.3824,-1.3839,0,-1.3854,0,-1.3845,-1.3839,-1.3839,0,0,0,-1.3794,-1.3828,-1.3821,-1.3808,-1.3801,-1.3808,-1.3803,-1.3824,-1.3825,-1.3841,-1.3854,-1.3854,-1.3846,-1.3839,-1.3839,-1.3944,-1.3944,0,0,-1.3794,-1.3814,-1.382,-1.3823,-1.3821,-1.3803,-1.3803,-1.3824,-1.384,-1.3854,-1.3855,-1.3846,-1.3839,-1.384,-1.3943,-1.3944,0,0,0,-1.3797,-1.3814,-1.3807,-1.3822,-1.3822,-1.3803,-1.3804,-1.3839,-1.3835,-1.3855,-1.3846,-1.3839,-1.384,-1.3942,-1.3943,-1.4002,0,0,0,-1.3796,-1.3816,-1.3807,-1.3819,-1.3822,-1.383,-1.3818,-1.3833,-1.3835,-1.3846,-1.384,-1.384,-1.3941,-1.3942,-1.3999,-1.4027,0,0,0,-1.3804,-1.3817,-1.3821,-1.3821,-1.3824,-1.3829,-1.3826,-1.3833,-1.383,-1.3839,-1.3841,-1.394,-1.3942,-1.3995,-1.4022,-1.4061,0,0,0,-1.3818,-1.3873,-1.3822,-1.3881,-1.3824,-1.3865,-1.3826,-1.3855,-1.387,-1.384,-1.3941,-1.3943,-1.3994,-1.4019,-1.4058,-1.4098,-1.4117,0,0,-1.3899,-1.3884,-1.3917,-1.3871,-1.3927,-1.3863,-1.3927,-1.3921,-1.3904,-1.3932,-1.3934,-1.4,-1.4021,-1.406,-1.4212,-1.4227,0,0,0,-1.395,-1.3974,-1.3984,-1.3999,-1.3995,-1.3995,-1.3977,-1.3975,-1.3998,-1.3922,-1.4023,-1.4036,-1.4058,-1.4076,-1.4089,-1.4107,-1.3952,-1.3952,-1.3952,-1.4095,-1.4069,-1.4123,-1.4098,-1.4113,-1.4094,-1.4104,-1.4098,-1.4068,-1.4093,-1.4101,-1.4196,-1.4218,-1.4228,-1.4247,-1.412,-1.412,-1.412,-1.412,-1.4213,-1.4244,-1.4202,-1.4239,-1.4212,-1.4244,-1.4228,-1.4206,-1.4232,-1.4188,-1.4206,-1.416,-1.4245,-1.426,-1.4125,-1.4124,-1.4123,-1.4123,-1.4123,-1.4307,-1.4317,-1.4313,-1.4331,-1.4348,-1.4321,-1.4348,-1.4323,-1.4299,-1.4317,-1.4323,-1.4322,-1.4319,-1.4321,-1.4322,-1.4322,-1.4322,-1.4323,-1.4323,-1.4405,-1.4399,-1.4424,-1.4425,-1.4431,-1.4436,-1.4418,-1.4423,-1.4423,-1.4403,-1.4403,-1.4371,-1.4257,-1.423,-1.4328,-1.4327,-1.4326,-1.4326,-1.4325,-1.4536,-1.4502,-1.4541,-1.4547,-1.4547,-1.4566,-1.4533,-1.4547,-1.4548,-1.4562,-1.4527,-1.4446,-1.4429,-1.4419,-1.4396,-1.4531,-1.4531,-1.4531,-1.4531,-1.4616,-1.4604,-1.4638,-1.465,-1.4658,-1.4632,-1.4678,-1.4665,-1.4646,-1.4646,-1.4622,-1.4589,-1.458,-1.4568,-1.4555,-1.4533,-1.47,-1.4701,-1.4701,-1.4696,-1.4683,-1.4727,-1.4707,-1.4705,-1.4704,-1.4747,-1.4763,-1.4735,-1.4707,-1.4645,-1.4638,-1.4584,-1.4568,-1.454,-1.4519,-1.4479,0,0]},{"header":{"parameterUnit":"m.s-1","parameterCategory":1,"la1":30.2992,"la2":30.254,"lo1":-89.0895,"lo2":-89.0443,"dy":0.0025,"dx":0.0025,"nx":19,"ny":19,"refTime":"2026-05-10T03:00:00:Z","depth":0,"parameterNumber":3,"parameterNumberName":"V-component_of_WINDS"},"data":[0,0,0,1.961,1.961,1.9608,1.9608,1.9612,1.9612,0,0,0,0,0,0,0,0,0,0,0,1.9614,1.9614,1.961,1.961,1.9608,1.9608,1.9612,1.9612,0,0,0,0,0,0,0,0,0,0,0,1.9614,1.9614,1.9614,1.961,1.9608,1.9608,1.9612,1.9611,0,0,0,0,0,0,0,0,0,0,1.9612,1.9619,1.9614,1.9614,1.961,1.9608,1.9608,1.9611,1.9611,1.9616,0,1.9621,0,1.9617,1.9613,1.9613,0,0,0,1.9607,1.9619,1.9615,1.9614,1.961,1.9608,1.9608,1.9611,1.9611,1.9616,1.9621,1.9621,1.9617,1.9613,1.9613,1.965,1.9651,0,0,1.9607,1.9616,1.9615,1.9616,1.9617,1.9608,1.9608,1.9611,1.9617,1.9621,1.9621,1.9617,1.9613,1.9613,1.965,1.965,0,0,0,1.9609,1.9616,1.9612,1.9616,1.9615,1.9608,1.9608,1.9617,1.9615,1.9621,1.9617,1.9613,1.9613,1.965,1.965,1.9675,0,0,0,1.9609,1.9617,1.9612,1.9617,1.9615,1.9616,1.9613,1.9614,1.9614,1.9617,1.9613,1.9613,1.9649,1.965,1.9673,1.9685,0,0,0,1.9613,1.9617,1.9619,1.9618,1.9617,1.9615,1.9614,1.9614,1.9612,1.9613,1.9613,1.9649,1.965,1.9672,1.9683,1.9698,0,0,0,1.9619,1.964,1.9619,1.9641,1.9618,1.9631,1.9613,1.9623,1.9626,1.9613,1.9649,1.965,1.9672,1.9681,1.9696,1.9712,1.9719,0,0,1.965,1.9644,1.9656,1.9638,1.9657,1.963,1.9653,1.9648,1.964,1.9647,1.9648,1.9674,1.9682,1.9697,1.9757,1.9763,0,0,0,1.9669,1.9678,1.9681,1.9685,1.9682,1.9681,1.9671,1.9669,1.9675,1.9645,1.9683,1.9688,1.9696,1.9703,1.9708,1.9715,1.9654,1.9654,1.9654,1.9726,1.9715,1.9734,1.9723,1.9728,1.9718,1.9721,1.9716,1.9703,1.9713,1.9715,1.9752,1.9761,1.9764,1.9771,1.9722,1.9722,1.9722,1.9722,1.977,1.9781,1.9765,1.9777,1.9766,1.9776,1.9768,1.9759,1.9767,1.9749,1.9756,1.9737,1.9771,1.9777,1.9724,1.9724,1.9723,1.9723,1.9723,1.9806,1.9809,1.9807,1.9813,1.9819,1.9807,1.9816,1.9805,1.9794,1.9801,1.9802,1.9802,1.98,1.9803,1.9803,1.9803,1.9803,1.9803,1.9803,1.9844,1.9841,1.985,1.9849,1.9851,1.9852,1.9843,1.9845,1.9843,1.9835,1.9835,1.9821,1.9777,1.9766,1.9805,1.9805,1.9805,1.9804,1.9804,1.9893,1.988,1.9895,1.9897,1.9895,1.9902,1.9888,1.9892,1.9892,1.9897,1.9882,1.9851,1.9844,1.984,1.983,1.9884,1.9884,1.9884,1.9884,1.9923,1.9919,1.9931,1.9935,1.9938,1.9927,1.9944,1.9938,1.9929,1.9928,1.9919,1.9906,1.9902,1.9897,1.9892,1.9883,1.9949,1.9949,1.9949,1.9953,1.9948,1.9965,1.9957,1.9955,1.9954,1.997,1.9975,1.9963,1.9952,1.9927,1.9925,1.9904,1.9897,1.9885,1.9877,1.9861,0,0]}]]